Location: Hanston Cemetery
(38.1563°N, 99.7166°W)
Time: 18:49:09
(UTC+00:00)

Daily predictions for brighter satellites

Satellite Brightness Start Highest point End
(mag) Time Altitude Azimuth Time Altitude Azimuth Time Altitude Azimuth
NOSS 0 Rocket 4.1 12:00:05 10° NNW 12:06:17 79° ENE 12:12:29 10° SSE
ATLAS 5 CENTAUR R/B 2.4 12:05:18 17° W 12:07:31 28° NW 12:11:17 10° NNE
CZ-2C R/B 4.3 12:07:04 10° NW 12:07:32 10° WNW 12:07:32 10° WNW
Cosmos 1140 Rocket 3.8 12:02:45 10° SW 12:07:45 46° WNW 12:12:44 10° N
H-2A R/B 2.7 12:06:25 10° NNE 12:10:20 90° NE 12:14:12 10° SSW
RESURS DK-1 2.8 12:07:14 10° SSW 12:11:18 67° ESE 12:15:24 10° NNE
Cosmos 1328 Rocket 3.8 12:07:54 10° SSW 12:12:00 43° W 12:16:07 10° N
Cosmos 1812 2.9 12:08:11 10° S 12:12:00 75° E 12:15:50 10° N
CZ-2C R/B 3.9 12:09:54 10° SSW 12:12:42 17° SSE 12:15:32 10° ESE
Cosmos 1515 Rocket 3.5 12:08:58 10° S 12:13:18 80° W 12:17:40 10° N
NOSS 3-4 (A) 4.0 12:09:11 12° WSW 12:14:11 37° NW 12:19:55 10° NNE
NOSS 3-4 (C) 4.0 12:09:14 12° WSW 12:14:17 37° NW 12:20:02 10° NNE
Milstar 3 Cent rocket 3.3 12:11:55 10° WSW 12:15:48 25° S 12:19:47 10° SE
Meteor 1-31 Rocket 3.7 12:15:21 10° NNW 12:18:40 28° WNW 12:21:56 10° SW
Cosmos 1242 Rocket 2.4 12:15:25 10° S 12:18:51 87° E 12:22:20 10° N
Cosmos 2219 3.2 12:14:42 10° SSW 12:20:22 89° WNW 12:26:03 10° NNE
SeaSat 1 2.4 12:15:40 10° SSE 12:20:33 65° WSW 12:25:28 10° NNW
NOSS 3-2 (C) 4.4 12:14:03 10° NW 12:21:39 51° WSW 12:29:58 10° S
ADEOS 4.2 12:18:30 10° N 12:23:10 34° WNW 12:27:49 10° SW
MOS 1 Rocket 3.5 12:21:06 10° SSW 12:25:11 41° W 12:29:29 10° NNW
COSMO-SKYMED 1 2.9 12:22:29 10° S 12:26:36 43° W 12:30:45 10° NNW
Timation 2 Rocket 4.2 12:19:48 10° SSW 12:26:42 85° WNW 12:33:31 10° NNE
Cosmos 1470 Rocket 3.6 12:22:28 10° NNW 12:26:44 58° W 12:30:57 10° S
CZ-4C R/B 3.3 12:23:25 10° W 12:27:28 24° NW 12:32:06 10° NNE
ATLAS 2AS CENTAUR R/B 3.3 12:21:32 10° SW 12:29:12 53° NW 12:36:50 10° NNE
SAR-Lupe-4 4.4 12:27:31 10° SSE 12:31:00 57° ENE 12:34:31 10° N
Delta 2 Rocket 4.4 12:26:57 10° W 12:31:34 47° SSW 12:36:42 10° ESE
deb Chang Zheng 4 3.7 12:29:48 10° N 12:33:59 52° WNW 12:38:09 10° SSW
SJ-7 4.3 12:30:30 10° N 12:34:30 75° WNW 12:38:33 10° SSW
Nadezhda 1 Rocket 4.2 12:30:37 10° SSW 12:36:30 49° W 12:42:30 10° N
